Location: Heppenheim
(49.6410°N, 8.6370°E)
Time: 00:18:23
(UTC+02:00)

ISS - Visible Passes

Search period start: 22 October 2019 00:00
Search period end: 31 October 2019 23:00
Orbit: 411 x 421 km, 51.6° (Epoch: 21 October)

Date Brightness Start Highest point End Pass type
(mag) Time Alt. Az. Time Alt. Az. Time Alt. Az.
24 Oct -0.6 06:50:27 10° SSE 06:51:48 12° SE 06:53:09 10° ESE visible
26 Oct -1.6 06:48:07 10° SSW 06:50:57 25° SE 06:53:47 10° E visible
27 Oct -1.2 05:00:46 12° S 05:02:30 17° SE 05:04:47 10° E visible
28 Oct -0.6 04:14:37 11° SE 04:14:37 11° SE 04:15:08 10° ESE visible
28 Oct -3.0 05:47:32 14° SW 05:50:13 50° SSE 05:53:30 10° ENE visible
29 Oct -2.5 05:01:15 33° SSE 05:01:40 34° SSE 05:04:46 10° E visible
29 Oct -3.7 06:34:53 10° W 06:38:15 74° NNW 06:41:38 10° ENE visible
30 Oct -0.8 04:14:49 16° ESE 04:14:49 16° ESE 04:15:55 10° E visible
30 Oct -3.8 05:47:44 25° WSW 05:49:35 89° SSE 05:52:58 10° ENE visible
31 Oct -3.4 05:01:13 63° ESE 05:01:13 63° ESE 05:04:17 10° ENE visible
31 Oct -3.5 06:34:24 10° W 06:37:44 60° N 06:41:05 10° ENE visible
